Location: アルンシュタイン
(50.0000°N, 10.0000°E)
Time: 15:36:38
(UTC+02:00)

Vanguard 1 - Pass Details

Date: 20 September 2024
Orbit: 649 x 3825 km, 34.3° (Epoch: 02 October)

Event Time Altitude Azimuth Distance (km) Brightness Sun altitude
Rises 09:49:16 0° 196° (SSW) 7,680 14.8 24.6°
Reaches altitude 10° 09:58:04 10° 179° (S) 6,163 14.7 25.8°
Maximum altitude 10:06:56 16° 150° (SSE) 4,955 15.1 26.9°
Drops below altitude 10° 10:13:57 10° 119° (ESE) 4,717 15.2 27.8°
Sets 10:18:59 0° 99° (E) 5,134 14.6 28.5°
